Regional Weather Roundup
Issued by NWS

Home | Current Version | Previous Version | Text Only | Print | Product List | Glossary Off
Versions: 1 2 3 4 5 6 7 8 9 10 11 12 13 14 15 16 17 18 19 20 21 22 23 24 25 26 27

000
ASUS45 KSLC 180810
RWRUT

UTAH REGIONAL WEATHER ROUNDUP
NATIONAL WEATHER SERVICE SALT LAKE CITY UT
200 AM MDT FRI AUG 18 2017

UTZ001>011-023>025-180900-

NORTHERN UTAH

CITY           SKY/WX    TMP DP  RH WIND       PRES   REMARKS
BRIGHAM CITY   CLEAR     65  41  41 CALM      30.13S
HILL AFB       CLEAR     67  34  28 E16       30.15S
LOGAN          CLEAR     57  47  69 CALM      30.16S
OGDEN          CLEAR     67  36  31 S8        30.12S
SALT LAKE CITY CLEAR     70  45  40 CALM      30.10F
TOOELE VALLEY  CLEAR     63  36  36 CALM      30.14R
WENDOVER       CLEAR     74  39  28 W6        30.13S
HEBER CITY     CLEAR     52  41  66 CALM      30.23S
WEST JORDAN    CLEAR     63  48  57 CALM      30.14S

$$

UTZ011>015-024>027-180900-

CENTRAL/NORTHEAST UTAH

CITY           SKY/WX    TMP DP  RH WIND       PRES   REMARKS
PROVO AIRPORT  CLEAR     63  49  60 CALM      30.14S
MOAB/CANYONLAN CLEAR     70  31  23 N6        30.09R
DELTA          CLEAR     64  34  32 W5        30.13S
PRICE          CLEAR     59  38  45 N8        30.22S
ROOSEVELT      CLEAR     57  46  67 CALM      30.20R
VERNAL         CLEAR     63  45  51 W5        30.18R

$$

UTZ013>016-019>022-027-180900-

SOUTHERN UTAH

CITY           SKY/WX    TMP DP  RH WIND       PRES   REMARKS
BRYCE CANYON   CLEAR     49  38  65 W10       30.38S
CEDAR CITY     CLEAR     65  39  38 CALM      30.21S
MILFORD        CLEAR     67  36  31 SW9       30.15S
ST GEORGE      SUNNY     77  43  29 E6        30.01S
HANKSVILLE     CLEAR     64  30  27 NW3       30.12S
BLANDING       CLEAR     62  32  32 N9        30.28S

$$

REGIONAL REPORTS     COLORADO/ARIZONA

CITY           SKY/WX    TMP DP  RH WIND       PRES   REMARKS
CRAIG, CO      CLOUDY    52  37  56 CALM      30.26S
GRAND JUNCTION CLEAR     69  37  30 SE15      30.14R
RIFLE, CO      CLOUDY    59  38  45 SE3       30.22R
MONTROSE, CO   CLEAR     62  38  40 SE10      30.24R
CORTEZ, CO     CLEAR     51  35  54 E5        30.24S
COLORADO CITY    N/A     59  46  63 CALM      30.19S
PAGE, AZ       CLEAR     80  36  20 SW5       30.08F
GRAND CANYON   CLEAR     49  34  56 CALM      30.32F
KINGMAN, AZ    CLEAR     68  36  30 CALM      30.08S
FLAGSTAFF, AZ  CLEAR     48  37  65 CALM      30.35S

$$

REGIONAL REPORTS    NEVADA/IDAHO/WYOMING

CITY           SKY/WX    TMP DP  RH WIND       PRES   REMARKS
LAS VEGAS, NV  CLEAR     87  39  18 SW6       29.95S
ELY, NY        CLEAR     52  35  52 S9        30.27S
ELKO, NV       CLEAR     62  29  28 E3        30.20S
POCATELLO, ID  CLEAR     59  36  42 SE3       30.14S
BURLEY, ID     CLEAR     56  42  59 SW9       30.10F
FORT BRIDGER,    N/A     60  32  34 SW7       30.35R
EVANSTON, WY   CLEAR     59  35  40 S3        30.33S
ROCK SPRINGS,  CLEAR     57  32  38 SW8       30.29S
KEMMERER, WY     N/A     52  32  46 NW9       30.34S

$$




USA.gov is the U.S. government's official web portal to all federal, state and local government web resources and services.